This demonstration page uses our WeatherBlox Daily Observations layout. Learn more.

Left ArrowRight Arrow

Hourly Observations for November 22, 2016

Temp ( °F °C ) Dew Point ( °F °C ) Humidity (%) Winds ( mph kmh ) Pressure ( in mb ) Visibility ( mi km ) Precip ( " mm )
12:51 am 00:51 Cloudy 52 11.1 43 6.1 72 72 NW 12 19 29.92 1013 10 16.0934 N/A
1:51 am 01:51 Mostly Cloudy 50 10 43 6.1 77 77 NW 8 13 29.93 1014 10 16.0934 N/A
2:51 am 02:51 Partly Cloudy 49 9.4 43 6.1 80 80 WNW 9 15 29.95 1014 10 16.0934 N/A
3:51 am 03:51 Mostly Clear 48 8.9 42 5.6 80 80 WNW 9 15 29.96 1014 10 16.0934 N/A
4:51 am 04:51 Clear 47 8.3 43 6.1 86 86 WNW 10 17 29.97 1015 10 16.0934 N/A
5:51 am 05:51 Clear 43 6.1 40 4.4 89 89 NW 5 7 29.99 1016 10 16.0934 N/A
6:51 am 06:51 Clear 41 5 39 3.9 93 93 N N/A 30.01 1016 10 16.0934 N/A
7:51 am 07:51 Sunny 46 7.8 42 5.6 86 86 N N/A 30.03 1017 10 16.0934 N/A
8:10 am 08:10 Mostly Sunny 48 9 43 6 82 82 N N/A 30.09 1019 10 16.0934 N/A
8:51 am 08:51 Sunny 50 10 42 5.6 74 74 N N/A 30.05 1018 10 16.0934 N/A
9:51 am 09:51 Sunny 55 12.8 43 6.1 64 64 W 5 7 30.04 1017 10 16.0934 N/A
10:51 am 10:51 Sunny 59 15 40 4.4 49 49 W 13 20 30.04 1017 10 16.0934 N/A
11:51 am 11:51 Sunny 62 16.7 37 2.8 40 40 NW 13 20 30.01 1016 10 16.0934 N/A
12:51 pm 12:51 Sunny 63 17.2 36 2.2 37 37 WNW 12 19 29.99 1016 10 16.0934 N/A
1:51 pm 13:51 Sunny 64 17.8 35 1.7 34 34 WNW 12 19 29.97 1015 10 16.0934 N/A
2:51 pm 14:51 Sunny 64 17.8 35 1.7 34 34 W 10 17 29.97 1015 10 16.0934 N/A
3:51 pm 15:51 Sunny 64 17.8 35 1.7 34 34 WNW 10 17 29.99 1016 10 16.0934 N/A
4:51 pm 16:51 Sunny 62 16.7 35 1.7 37 37 NW 9 15 30.01 1016 10 16.0934 N/A
5:51 pm 17:51 Clear 56 13.3 36 2.2 47 47 NW 6 9 30.05 1018 10 16.0934 N/A
6:51 pm 18:51 Clear 51 10.6 36 2.2 56 56 N 7 11 30.08 1019 10 16.0934 N/A
7:51 pm 19:51 Clear 49 9.4 36 2.2 61 61 N N/A 30.09 1019 10 16.0934 N/A
8:51 pm 20:51 Clear 46 7.8 35 1.7 66 66 ESE 6 9 30.1 1019 10 16.0934 N/A
9:51 pm 21:51 Clear 46 7.8 35 1.7 66 66 ENE 3 6 30.09 1019 10 16.0934 N/A
10:51 pm 22:51 Clear 43 6.1 34 1.1 71 71 E 5 7 30.1 1019 10 16.0934 N/A
11:51 pm 23:51 Clear 44 6.7 35 1.7 71 71 SSE 9 15 30.09 1019 10 16.0934 N/A

Powered by AerisWeather